STARLINK-1780 (46684 NORAD) Tracking and Keplerian Element Data
This shows tracking and keplerian element data for the satellite.
Feedback or suggestion? Click here.
Element | Value |
Catalog | 46684 |
Name | STARLINK-1780 |
Epoch Orbit | 175 |
Epoch Day | 20.91667824 |
Epoch Year | 2021 |
RAAN | 13.3014 |
Inclination | 53.0576 |
Eccentricity | 0.0001902 |
Argument of Perigee | 79.0062 |
Mean Anonmoly | 195.9684 |
Mean Motion | 15.06367484 |
Decay Rate | 0.00032169 |
L1 | 1 46684U 20073Q 21020.91667824 .00032169 00000-0 21706-2 0 9997 |
L2 | 2 46684 53.0576 13.3014 0001902 79.0062 195.9684 15.06367484 1753 |
Live tracking and technical data element details for STARLINK-1780 (NORAD 46684). STARLINK-1780 can be tracked NOW for your location showing map with azimuth and elevation plus other details from your city location.
Track the satellite on the map from your city or location and see movement details for azimuth, elevation, latitude, longitude, range, height, and movement on the map or in text.
IsCatalogInMostPopularTable: catalog: 46684, numindb: 25
Update: records affected: 1
GetName: 46684 STARLINK-1780
Hit Count: updated at: Fri, 22 Jan 2021 16:48:58 GMT